Location: St. Louis
(38.6270°N, 90.1994°W)
Time: 11:19:06
(UTC-06:00)

A-11 Canister half - Pass Details

Date: 15 December 2021
Orbit: 1524 x 1684 km, 47.3° (Epoch: 25 January)

Event Time Altitude Azimuth Distance (km) Brightness Sun altitude
Rises 07:27:10 0° 286° (WNW) 4,898 11.0 1.8°
Reaches altitude 10° 07:33:33 10° 257° (WSW) 3,869 10.7 2.8°
Maximum altitude 07:36:16 11° 240° (WSW) 3,736 10.8 3.3°
Drops below altitude 10° 07:38:58 10° 224° (SW) 3,828 11.0 3.7°
Sets 07:45:14 0° 193° (SSW) 4,764 11.9 4.7°
